Total_Precipitation_Accumulation
0.84 0.97 1.29 1.24 1.15 1.00 0.85 0.84 0.84 0.79 0.82 0.77 0.74 0.68 0.68 0.69 0.71 0.83 0.89 0.99 1.08 1.14 1.22 1.30 1.34 1.35 1.36 1.34 1.40 1.37 1.27 1.29 1.38 1.52 1.57 1.58 1.68 1.85 2.14 2.29 2.09 1.43 1.39
0.42 0.61 1.07 1.07 0.93 0.86 0.78 0.81 0.79 0.77 0.78 0.73 0.68 0.68 0.73 0.71 0.69 0.84 0.97 1.04 1.09 1.20 1.20 1.24 1.29 1.28 1.26 1.22 1.23 1.32 1.29 1.41 1.64 2.00 2.12 1.91 2.04 2.09 2.12 2.02 1.98 1.45 1.45
0.28 0.41 0.66 0.91 0.80 0.77 0.77 0.77 0.79 0.71 0.68 0.69 0.70 0.73 0.76 0.76 0.77 0.82 0.89 0.94 1.07 1.19 1.16 1.13 1.17 1.13 1.11 1.16 1.19 1.28 1.38 1.64 2.02 2.55 2.84 2.11 1.68 2.03 1.97 1.84 1.69 1.37 1.30
0.30 0.30 0.32 0.62 0.74 0.77 0.76 0.74 0.74 0.70 0.68 0.69 0.79 0.75 0.75 0.82 0.92 0.95 0.88 0.89 0.99 1.09 1.09 1.08 0.98 1.07 1.06 1.10 1.20 1.35 1.52 1.72 2.18 2.66 2.65 1.76 1.25 1.54 1.64 1.48 1.43 1.32 1.30
0.29 0.25 0.36 0.56 0.61 0.67 0.73 0.70 0.66 0.72 0.80 0.82 0.81 0.69 0.74 0.78 0.92 0.98 0.90 0.91 0.94 1.02 1.07 1.11 1.02 1.12 1.06 1.11 1.19 1.34 1.58 1.81 2.16 2.22 1.76 1.78 1.76 1.57 1.34 1.28 1.38 1.48 1.32
0.38 0.32 0.40 0.59 0.58 0.60 0.65 0.67 0.69 0.81 0.90 0.87 0.82 0.74 0.77 0.80 0.91 0.91 0.89 0.96 0.93 1.02 1.14 1.24 1.17 1.19 1.18 1.15 1.18 1.28 1.46 1.77 1.82 1.32 1.14 1.45 1.60 1.60 1.45 1.45 1.45 1.40 1.24
0.50 0.50 0.54 0.70 0.67 0.63 0.61 0.69 0.78 0.87 0.90 0.92 0.86 0.78 0.78 0.79 0.88 0.90 0.89 0.93 0.91 1.05 1.18 1.28 1.26 1.23 1.26 1.31 1.33 1.36 1.46 1.64 1.40 1.04 1.11 1.43 1.50 1.51 1.69 1.78 1.62 1.37 1.16
0.87 0.85 0.87 0.90 0.84 0.78 0.71 0.78 0.92 0.90 0.84 0.87 0.86 0.79 0.76 0.81 0.87 0.86 0.86 0.89 0.89 1.01 1.13 1.23 1.26 1.22 1.23 1.29 1.31 1.28 1.37 1.30 0.96 0.97 1.13 1.29 1.21 1.36 1.74 1.94 1.80 1.62 1.36
1.23 1.19 1.03 0.93 0.87 0.86 0.93 0.99 0.95 0.83 0.82 0.84 0.87 0.80 0.74 0.78 0.76 0.73 0.81 0.90 0.88 0.99 1.10 1.22 1.21 1.21 1.17 1.19 1.20 1.21 1.33 1.31 1.06 1.19 1.15 1.24 1.18 1.39 1.62 1.78 1.70 1.59 1.42
1.62 1.46 1.19 1.00 1.02 0.90 0.90 0.98 0.93 0.82 0.84 0.87 0.87 0.83 0.84 0.86 0.84 0.88 0.89 1.02 1.01 1.04 1.08 1.18 1.21 1.17 1.17 1.19 1.18 1.27 1.36 1.29 1.10 1.23 1.39 1.21 1.27 1.52 1.66 1.66 1.70 1.66 1.48
2.03 1.62 1.25 1.15 1.23 1.13 0.97 0.92 1.13 1.04 1.01 1.04 1.08 1.09 1.30 1.59 1.34 1.31 1.10 1.25 1.24 1.28 1.32 1.41 1.47 1.44 1.40 1.29 1.30 1.45 1.36 1.24 1.35 1.48 1.73 1.37 1.36 1.66 1.85 1.86 1.76 1.65 1.53
2.02 1.98 1.64 1.39 1.31 1.34 1.20 1.24 1.67 1.60 1.53 1.68 1.75 1.69 2.04 2.05 1.83 1.31 1.30 1.65 1.66 1.75 1.87 2.12 2.26 2.00 1.67 1.44 1.61 2.03 1.55 1.34 1.48 1.56 1.67 1.48 1.58 1.97 2.17 2.07 1.80 1.55 1.47
1.99 1.91 1.96 1.78 1.62 1.61 1.72 1.61 1.78 1.99 2.04 2.12 2.05 2.06 2.30 1.96 1.67 1.51 1.72 2.11 2.15 2.21 2.30 2.53 2.65 2.09 2.08 2.37 2.41 2.30 2.03 1.82 1.80 1.93 1.94 1.92 2.03 2.36 2.46 2.31 2.09 1.78 1.56
2.22 2.13 2.39 2.31 2.21 2.24 2.07 2.03 1.87 1.83 1.86 1.95 2.05 1.97 2.13 2.16 2.04 2.03 2.17 2.24 2.41 2.59 2.85 2.69 2.82 2.77 2.81 2.63 2.60 2.62 2.50 2.35 2.23 2.41 2.75 2.60 2.53 2.62 2.80 2.58 2.26 2.11 1.95
2.67 2.74 2.91 2.96 3.06 2.87 2.61 2.38 1.99 1.98 1.90 1.84 1.89 1.87 2.07 2.33 2.37 2.49 2.29 2.34 2.13 2.27 2.63 2.93 2.94 3.13 3.25 3.09 2.69 2.46 2.48 2.46 2.25 2.25 2.55 2.77 2.82 2.73 2.83 2.83 2.56 2.40 2.32
3.33 3.52 3.52 3.54 3.56 3.37 2.96 2.70 2.39 2.09 2.11 1.91 1.88 1.95 2.40 2.63 2.59 2.68 2.53 2.48 2.19 2.19 2.51 2.89 2.95 3.25 3.28 3.28 2.76 2.41 2.34 2.33 2.13 2.05 2.17 2.61 2.61 2.48 2.54 2.75 2.84 2.79 2.69
4.03 4.22 4.41 4.30 4.00 4.01 3.66 2.94 2.41 2.13 1.98 2.07 2.19 2.24 2.48 2.63 2.81 2.98 2.88 2.50 2.26 2.35 2.56 2.59 2.74 3.23 3.09 3.04 2.86 2.75 2.69 2.47 2.21 2.13 2.06 2.24 2.16 2.29 2.42 2.51 2.72 2.95 3.06
4.61 5.03 5.23 4.83 4.71 4.70 4.34 3.72 3.15 2.81 2.61 2.60 2.59 2.39 2.20 2.41 2.55 2.77 2.54 2.15 2.21 2.42 2.59 2.60 2.61 3.00 3.13 3.15 3.13 2.96 2.80 2.59 2.19 2.08 2.03 1.98 2.00 1.81 2.07 2.33 2.58 2.87 3.24
4.91 5.62 6.01 6.17 5.67 5.25 4.65 4.19 3.68 3.32 3.11 2.86 2.57 2.30 2.01 1.83 1.76 2.00 1.97 1.90 1.90 2.16 2.20 1.94 2.19 2.51 2.71 2.85 2.64 2.49 2.19 1.97 1.82 1.73 1.71 1.62 1.79 1.90 2.00 2.00 2.30 2.57 3.10
5.02 5.72 6.13 6.34 5.79 5.05 4.70 4.63 4.25 3.67 3.26 2.88 2.49 2.23 1.86 1.71 1.53 1.73 1.73 1.58 1.56 1.72 1.78 1.94 2.24 2.33 2.24 2.29 1.98 1.89 1.83 1.63 1.59 1.58 1.41 1.42 1.57 1.54 1.67 1.89 2.17 2.00 2.49
5.37 6.03 6.15 5.85 5.14 4.60 4.16 3.91 3.60 3.32 3.04 2.56 2.14 1.88 1.76 1.68 1.61 1.78 1.61 1.63 1.54 1.56 1.59 1.68 1.89 1.98 1.75 1.91 2.15 1.94 1.63 1.38 1.40 1.39 1.33 1.41 1.47 1.55 1.67 2.02 2.23 2.26 2.09
4.95 5.31 5.37 4.97 4.21 3.71 3.42 3.33 3.03 2.81 2.47 2.25 2.00 1.93 1.68 1.61 1.61 1.49 1.62 1.44 1.39 1.56 1.54 1.60 1.81 1.82 1.60 1.72 2.00 2.06 1.80 1.69 1.39 0.99 1.18 1.30 1.35 1.63 1.73 1.75 2.00 2.43 2.40
4.43 4.20 3.90 3.71 3.30 3.16 3.09 2.88 2.64 2.58 2.29 2.11 1.90 1.80 1.55 1.39 1.36 1.38 1.36 1.26 1.33 1.23 1.39 1.56 1.68 1.84 1.80 1.62 1.61 1.90 1.82 1.76 1.55 1.14 1.00 1.09 1.33 1.59 1.60 1.70 1.76 2.08 2.38
3.44 3.14 2.94 2.86 2.77 2.71 2.60 2.47 2.17 2.03 1.97 1.79 1.69 1.70 1.59 1.41 1.35 1.34 1.26 1.32 1.31 1.17 1.42 1.22 1.36 1.64 1.78 1.61 1.61 1.55 1.58 1.68 1.71 1.54 1.31 1.14 1.29 1.38 1.48 1.52 1.67 1.97 2.19
2.19 2.33 2.38 2.47 2.59 2.49 2.43 2.40 2.29 2.03 1.95 1.89 1.88 1.96 1.84 1.65 1.45 1.23 1.26 1.41 1.46 1.31 1.33 1.31 1.48 1.51 1.55 1.57 1.58 1.56 1.72 1.73 1.56 1.58 1.58 1.47 1.40 1.18 1.33 1.59 1.76 1.88 1.99
1.49 1.68 1.85 1.93 2.10 2.24 2.23 2.13 2.06 1.99 2.01 2.02 1.96 1.80 1.61 1.50 1.41 1.29 1.36 1.57 1.56 1.51 1.47 1.40 1.41 1.46 1.62 1.72 1.71 1.59 1.65 1.70 1.65 1.73 1.57 1.50 1.56 1.37 1.51 1.80 1.87 1.92 1.88